GW0434 Weather Reports


time (UTC)temp
C
wind
direction
speed
KPH
gust
KPH
rain 1hr
cm
rain 24hr
cm
rain mn
cm
humidity
%
barometer
mb
20260506140052 3 0 0.0 0.0 0.00 0.00 0.00 91 1021.5
20260506134551 3 0 0.0 1.6 0.00 0.00 0.00 91 1021.3
20260506133107 3 0 0.0 1.6 0.00 0.00 0.00 91 1021.2
20260506131558 3 0 0.0 1.6 0.00 0.00 0.00 90 1021.3
20260506130049 3 0 0.0 1.6 0.00 0.00 0.00 90 1020.9
20260506124548 2 0 0.0 1.6 0.00 0.00 0.00 90 1020.7
20260506123052 2 0 0.0 0.0 0.00 0.00 0.00 90 1020.4
20260506121554 2 0 0.0 3.2 0.00 0.00 0.00 90 1020.2
20260506120101 2 311 0.0 1.6 0.00 0.00 0.00 90 1019.9
20260506114553 3 311 0.0 1.6 0.00 0.00 0.00 90 1019.8
20260506113048 3 0 0.0 3.2 0.00 0.00 0.00 90 1019.6
20260506111624 3 0 0.0 3.2 0.00 0.00 0.00 89 1019.5
20260506110058 3 0 0.0 0.0 0.00 0.00 0.00 90 1019.3
20260506104608 3 0 0.0 3.2 0.00 0.00 0.00 89 1019.3
20260506103049 3 311 0.0 1.6 0.00 0.00 0.00 89 1019.1
20260506101552 4 0 0.0 1.6 0.00 0.00 0.00 89 1018.8
20260506100058 4 310 0.0 3.2 0.00 0.00 0.00 89 1018.8
20260506094600 4 0 0.0 3.2 0.00 0.00 0.00 88 1018.6
20260506093052 5 311 0.0 1.6 0.00 0.00 0.00 88 1018.5
20260506091549 5 0 0.0 1.6 0.00 0.00 0.00 88 1018.3
20260506090049 6 0 0.0 3.2 0.00 0.00 0.00 88 1018.3
20260506084616 6 314 1.6 3.2 0.00 0.00 0.00 88 1018.3
20260506083050 6 0 0.0 3.2 0.00 0.00 0.00 87 1018.2
20260506081557 6 331 0.0 3.2 0.00 0.00 0.00 86 1018.1
20260506073050 7 0 0.0 1.6 0.00 0.00 0.00 84 1017.9
20260506071554 8 0 1.6 4.8 0.00 0.00 0.00 84 1017.6
20260506061552 9 175 0.0 3.2 0.00 0.10 0.00 81 1016.8
20260506044548 11 84 1.6 4.8 0.00 0.10 0.00 77 1015.5
20260506043049 11 241 1.6 11.3 0.00 0.10 0.00 75 1015.3
20260506041556 12 0 3.2 9.7 0.00 0.10 0.00 73 1014.9
20260506040053 12 0 0.0 4.8 0.00 0.10 0.00 70 1014.7
20260506034550 13 208 1.6 9.7 0.00 0.10 0.00 67 1014.2
20260506033051 13 326 6.4 14.5 0.00 0.10 0.00 66 1014.1
20260506031554 13 288 4.8 12.9 0.00 0.10 0.00 65 1014.2
20260506030053 15 106 0.0 12.9 0.00 0.10 0.00 63 1013.4
20260506024553 15 256 0.0 9.7 0.00 0.38 0.00 61 1013.4
20260506023103 15 306 0.0 9.7 0.00 0.38 0.00 60 1013.1
20260506021609 15 17 1.6 11.3 0.00 0.38 0.00 60 1013.1
20260506020048 16 338 0.0 14.5 0.00 0.38 0.00 60 1013.1
20260506014553 17 298 1.6 11.3 0.00 0.61 0.00 55 1012.7
20260506013100 18 248 4.8 12.9 0.00 0.61 0.00 53 1012.7
20260506011614 18 94 3.2 11.3 0.00 0.61 0.00 51 1012.6
20260506010058 18 286 3.2 9.7 0.00 0.61 0.00 50 1012.7
20260506004550 19 245 3.2 11.3 0.00 0.61 0.00 49 1012.6
20260506003054 18 317 4.8 14.5 0.00 0.61 0.00 49 1012.6
20260506001555 17 313 1.6 8.0 0.00 0.61 0.00 55 1012.5
20260506000051 17 288 4.8 12.9 0.00 0.61 0.00 53 1012.6
20260505234546 18 68 1.6 12.9 0.00 0.64 0.00 51 1012.4
20260505233047 19 183 6.4 14.5 0.00 0.64 0.00 47 1012.4
20260505231604 18 269 1.6 8.0 0.00 0.64 0.00 48 1012.6
20260505230049 18 288 4.8 11.3 0.00 0.64 0.00 48 1012.7
20260505224554 18 0 1.6 11.3 0.00 0.66 0.00 47 1012.8
20260505223051 18 225 3.2 12.9 0.00 0.66 0.00 48 1012.9
20260505221549 18 352 3.2 11.3 0.00 0.66 0.00 53 1012.9
20260505220054 17 233 4.8 11.3 0.00 0.66 0.00 51 1013.2
20260505214557 17 149 3.2 9.7 0.00 0.66 0.00 55 1013.3
20260505213053 17 253 4.8 11.3 0.00 0.66 0.00 51 1013.4
20260505211552 17 53 3.2 11.3 0.00 0.66 0.00 52 1013.6
20260505210051 16 182 3.2 11.3 0.00 0.66 0.00 52 1013.6
20260505204555 16 159 3.2 8.0 0.00 0.66 0.00 58 1013.7
20260505203119 15 307 3.2 9.7 0.00 0.66 0.00 59 1013.8
20260505201600 15 191 4.8 14.5 0.00 0.66 0.00 64 1013.8
20260505200057 15 277 1.6 8.0 0.00 0.66 0.00 64 1013.9
20260505194548 13 0 0.0 8.0 0.00 0.66 0.00 67 1014.0
20260505193051 13 172 3.2 11.3 0.00 0.66 0.00 68 1014.2
20260505191603 12 304 3.2 11.3 0.00 0.66 0.00 68 1014.3
20260505190050 12 232 4.8 11.3 0.00 0.66 0.00 69 1014.3
20260505184552 12 289 3.2 8.0 0.00 0.66 0.00 71 1014.2
20260505183052 11 71 0.0 6.4 0.00 0.66 0.00 73 1014.2
20260505181552 11 352 1.6 8.0 0.00 0.66 0.00 76 1014.3
20260505180101 10 319 3.2 9.7 0.00 0.66 0.00 76 1014.3
20260505174555 10 232 1.6 4.8 0.00 0.66 0.00 80 1014.3
20260505173055 9 257 0.0 6.4 0.00 0.66 0.00 83 1014.2
20260505171550 8 219 1.6 6.4 0.00 0.66 0.00 83 1014.1
20260505170106 8 174 1.6 4.8 0.00 0.66 0.00 86 1014.1
20260505164554 8 126 0.0 4.8 0.00 0.66 0.00 88 1013.9
20260505163051 7 241 0.0 4.8 0.00 0.66 0.00 89 1013.9
20260505161614 7 207 1.6 4.8 0.00 0.66 0.00 90 1013.8
20260505153101 6 0 0.0 3.2 0.00 0.71 0.00 90 1013.5
20260505151603 5 248 0.0 3.2 0.00 0.71 0.00 90 1013.4